Regional Weather Roundup
Issued by NWS

Home | Current Version | Previous Version | Text Only | Print | Product List | Glossary Off
Versions: 1 2 3 4 5 6 7 8 9 10 11 12 13 14 15 16 17 18 19 20 21 22 23 24 25 26 27 28 29 30 31 32 33 34 35 36 37 38 39 40 41 42 43 44 45 46 47 48 49 50

000
ASUS44 KMEG 021816
RWRTN

TENNESSEE HOURLY STATE WEATHER ROUNDUP
NATIONAL WEATHER SERVICE MEMPHIS TN
100 PM CDT SUN AUG 02 2015

TNZ002-004-019-021-049-052-054-088>092-021900-
WEST TENNESSEE

CITY           SKY/WX    TMP DP  RH WIND       PRES   REMARKS
MEMPHIS INTL   MOSUNNY   93  67  42 VRB6      29.96F HX  96
NWS MEMPHIS      N/A     90 N/A N/A MISG        N/A
JACKSON        MOSUNNY   92  66  42 CALM      29.97F HX  94
DYERSBURG        N/A    N/A N/A N/A MISG        N/A
PARIS          SUNNY     88  64  45 CALM      29.99F
LEXINGTON      SUNNY     88  63  42 E5        29.98F
$$

TNZ008-025-027-028-033-062-065-066-021900-
NORTH MIDDLE TENNESSEE

CITY           SKY/WX    TMP DP  RH WIND       PRES   REMARKS
NASHVILLE      MOSUNNY   88  52  29 VRB5      29.99F
CLARKSVILLE    SUNNY     87  60  40 CALM      29.98F
SMYRNA         SUNNY     94  58  29 E8        29.99F HX  93
CROSSVILLE     SUNNY     83  53  35 N5        30.05F
$$

TNZ061-075-076-078-094-096-097-021900-
SOUTH MIDDLE TENNESSEE

CITY           SKY/WX    TMP DP  RH WIND       PRES   REMARKS
FAYETTEVILLE   SUNNY     86  55  35 NE7       29.99F
TULLAHOMA      SUNNY     86  55  35 N3        30.01F
WINCHESTER     SUNNY     90  63  40 VRB6      29.99F HX  90
MCMINNVILLE    SUNNY     88  63  42 NW7       30.00F
COLUMBIA       SUNNY     90  61  37 SE3       29.98F
SHELBYVILLE    SUNNY     90  61  37 VRB5      30.00F
$$

TNZ017-018-042-046-047-021900-
NORTHEAST TENNESSEE

CITY           SKY/WX    TMP DP  RH WIND       PRES   REMARKS
TRI CITIES     MOSUNNY   84  52  33 CALM      30.03F
ELIZABETHTON   CLEAR     82  48  30 CALM      30.03F
$$

TNZ012-013-036-069-073-074-021900-
CENTRAL EAST TENNESSEE

CITY           SKY/WX    TMP DP  RH WIND       PRES   REMARKS
KNOXVILLE      MOSUNNY   87  61  41 VRB7      29.98F
OAK RIDGE      SUNNY     87  60  40 CALM      30.00F
GATLINBURG       N/A     86  61  42 VRB6      29.98F
MORRISTOWN     CLEAR     84  61  45 VRB3      30.02S
$$

TNZ083-085-099-021900-
SOUTHEAST TENNESSEE

CITY           SKY/WX    TMP DP  RH WIND       PRES   REMARKS
CHATTANOOGA    MOSUNNY   89  63  41 NW8       29.97F HX  90
$$

SKY/WX REPORTED AS FAIR MEANS FEW OR NO CLOUDS BELOW
12 THOUSAND FEET.



USA.gov is the U.S. government's official web portal to all federal, state and local government web resources and services.